Stations météo

réclame
Mon MeteoGroup
Luqa, Malte (16597): Température de l'air & dewpoint: 13.01.2018 18:00:00 - 19.01.2018 18:00:00 (CET)Luqa, Malte (16597): Vitesse du vent: 13.01.2018 18:00:00 - 19.01.2018 18:00:00 (CET)Luqa, Malte (16597): Direction du vent: 13.01.2018 18:00:00 - 19.01.2018 18:00:00 (CET)Luqa, Malte (16597): reduced air pressure: 13.01.2018 18:00:00 - 19.01.2018 18:00:00 (CET)Luqa, Malte (16597): visibility: 13.01.2018 18:00:00 - 19.01.2018 18:00:00 (CET)
Date & Time tt [°C] td [°C] ff [km/h] ff [knt] dd ppp [hPa] vv [km]
19.01.2018 18:00:00 14,0 8,0 9 5 SW - 10
19.01.2018 17:00:00 14,0 8,0 9 5 WSW - 10
19.01.2018 16:00:00 14,7 7,8 15 8 WSW 1017,2 10
19.01.2018 15:00:00 15,0 8,0 11 6 SW - 10
19.01.2018 14:00:00 15,0 8,0 15 8 WSW - 10
19.01.2018 13:00:00 15,7 7,7 16 9 SW 1018,6 10
19.01.2018 12:00:00 15,0 7,0 9 5 SW - 10
19.01.2018 11:00:00 15,0 7,0 13 7 SSW - 10
19.01.2018 10:00:00 13,9 7,7 11 6 SW 1020,8 10
19.01.2018 09:00:00 13,0 7,0 8 4 W - 10
19.01.2018 08:00:00 12,0 7,0 8 4 WSW - 10
19.01.2018 07:00:00 12,2 7,0 11 6 SW 1020,8 10
19.01.2018 06:00:00 12,0 7,0 9 5 WSW - 10
19.01.2018 05:00:00 12,0 7,0 9 5 W - 10
19.01.2018 04:00:00 11,9 6,4 9 5 W 1021,3 10
19.01.2018 03:00:00 12,0 7,0 9 5 W - 10
19.01.2018 02:00:00 11,0 6,0 9 5 W - 10
19.01.2018 01:00:00 10,4 6,2 9 5 W 1022,8 10
19.01.2018 00:00:00 10,0 6,0 8 4 W - 10
18.01.2018 23:00:00 10,0 6,0 11 6 W - 10
18.01.2018 22:00:00 10,1 5,3 9 5 W 1023,2 10
18.01.2018 21:00:00 10,0 5,0 0 0 N - 10
18.01.2018 20:00:00 10,0 5,0 8 4 W - 10
18.01.2018 19:00:00 11,2 3,7 8 4 W 1024,3 10
18.01.2018 18:00:00 11,0 4,0 8 4 WNW - 10
18.01.2018 17:00:00 13,0 4,0 8 4 W - 10
18.01.2018 16:00:00 14,6 4,4 15 8 NW 1023,4 10
18.01.2018 15:00:00 15,0 4,0 16 9 NNW - 10
18.01.2018 14:00:00 16,0 1,0 13 7 NNW - 10
18.01.2018 13:00:00 15,3 4,1 15 8 NNW 1023,7 10
18.01.2018 12:00:00 15,0 4,0 16 9 N - 10
18.01.2018 11:00:00 15,0 4,0 15 8 N - 10
18.01.2018 10:00:00 14,5 4,7 26 14 N 1023,3 10
18.01.2018 09:00:00 14,0 4,0 26 14 N - 10
18.01.2018 08:00:00 13,0 4,0 24 13 N - 10
18.01.2018 07:00:00 11,8 4,7 22 12 N 1021,0 10
18.01.2018 06:00:00 12,0 4,0 26 14 N - 10
18.01.2018 05:00:00 12,0 6,0 18 10 N - 10
18.01.2018 04:00:00 12,6 2,9 24 13 NNW 1018,7 10
18.01.2018 03:00:00 13,0 3,0 31 17 NNW - 10
18.01.2018 02:00:00 13,0 6,0 31 17 NNW - 10
18.01.2018 01:00:00 13,8 6,3 34 18 NNW 1017,5 10
18.01.2018 00:00:00 14,0 6,0 44 24 NNW - 10
17.01.2018 23:00:00 15,0 7,0 46 25 NW - 10
17.01.2018 22:00:00 15,0 8,2 41 22 WNW 1016,3 10
17.01.2018 21:00:00 15,0 9,0 44 24 WNW - 10
17.01.2018 20:00:00 15,0 11,0 39 21 WNW - 10
17.01.2018 19:00:00 15,2 10,4 39 21 WNW 1015,4 10
17.01.2018 18:00:00 15,0 9,0 34 18 WNW - 10
17.01.2018 17:00:00 15,0 8,0 37 20 WNW - 10
17.01.2018 16:00:00 16,1 7,7 34 18 NW 1015,3 10
17.01.2018 15:00:00 17,0 8,0 39 21 WNW - 10
17.01.2018 14:00:00 17,0 7,0 29 16 WNW - 10
17.01.2018 13:00:00 16,9 9,6 29 16 WNW 1016,1 10
17.01.2018 12:00:00 17,0 11,0 26 14 W - 10
17.01.2018 11:00:00 16,0 11,0 28 15 W - 10
17.01.2018 10:00:00 16,1 8,1 22 12 W 1018,3 10
17.01.2018 09:00:00 16,0 8,0 26 14 WNW - 10
17.01.2018 08:00:00 14,0 9,0 21 11 W - 10
17.01.2018 07:00:00 13,4 9,3 22 12 W 1018,6 10
17.01.2018 06:00:00 14,0 9,0 22 12 W - 10
17.01.2018 05:00:00 14,0 10,0 24 13 W - 10
17.01.2018 04:00:00 13,5 10,2 24 13 W 1020,1 10
17.01.2018 03:00:00 14,0 10,0 22 12 WNW - 10
17.01.2018 02:00:00 14,0 10,0 24 13 WNW - 10
17.01.2018 01:00:00 14,1 9,5 34 18 WNW 1021,3 10
17.01.2018 00:00:00 14,0 10,0 26 14 WNW - 10
16.01.2018 23:00:00 14,0 10,0 24 13 WNW - 10
16.01.2018 22:00:00 13,8 10,2 21 11 WNW 1023,4 10
16.01.2018 21:00:00 13,0 10,0 22 12 WNW - 10
16.01.2018 20:00:00 14,0 10,0 18 10 WNW - 10
16.01.2018 19:00:00 13,8 10,1 21 11 WNW 1023,7 10
16.01.2018 18:00:00 13,0 10,0 16 9 WNW - 10
16.01.2018 17:00:00 14,0 10,0 21 11 WNW - 10
16.01.2018 16:00:00 15,3 9,8 22 12 WNW 1023,5 10
16.01.2018 15:00:00 16,0 9,0 28 15 WNW - 10
16.01.2018 14:00:00 16,0 9,0 24 13 WNW - 10
16.01.2018 13:00:00 16,3 7,8 24 13 WNW 1024,7 10
16.01.2018 12:00:00 16,0 8,0 24 13 NW - 10
16.01.2018 11:00:00 16,0 9,0 21 11 WNW - 10
16.01.2018 10:00:00 14,8 9,5 18 10 WNW 1026,2 10
16.01.2018 09:00:00 14,0 10,0 15 8 WNW - 10
16.01.2018 08:00:00 11,0 9,0 9 5 W - 10
16.01.2018 07:00:00 10,4 7,8 11 6 WNW 1025,6 10
16.01.2018 06:00:00 11,0 8,0 9 5 WNW - 10
16.01.2018 05:00:00 11,0 8,0 13 7 W - 10
16.01.2018 04:00:00 9,5 6,7 5 3 WSW 1025,5 10
16.01.2018 03:00:00 11,0 7,0 9 5 WNW - 10
16.01.2018 02:00:00 11,0 8,0 13 7 WNW - 10
16.01.2018 01:00:00 10,9 7,8 8 4 W 1025,5 10
16.01.2018 00:00:00 11,0 7,0 11 6 WNW - 10
15.01.2018 23:00:00 11,0 7,0 9 5 WNW - 10
15.01.2018 22:00:00 11,2 7,8 8 4 W 1025,8 10
15.01.2018 21:00:00 12,0 7,0 8 4 WNW - 10
15.01.2018 20:00:00 12,0 8,0 5 3 WNW - 10
15.01.2018 19:00:00 13,2 7,9 5 3 WSW 1024,6 10
15.01.2018 18:00:00 13,0 8,0 8 4 WSW - 10
15.01.2018 17:00:00 14,0 8,0 5 3 W - 10
15.01.2018 16:00:00 14,9 7,6 8 4 W 1023,5 10
15.01.2018 15:00:00 15,0 7,0 11 6 W - 10
15.01.2018 14:00:00 15,0 7,0 13 7 WSW - 10
15.01.2018 13:00:00 15,9 8,2 16 9 WSW 1024,4 10
15.01.2018 12:00:00 15,0 9,0 13 7 WSW - 10
15.01.2018 11:00:00 16,0 9,0 11 6 WSW - 10
15.01.2018 10:00:00 14,6 8,1 9 5 WSW 1025,1 10
15.01.2018 09:00:00 14,0 8,0 11 6 WSW - 10
15.01.2018 08:00:00 13,0 8,0 9 5 WSW - 10
15.01.2018 07:00:00 13,5 8,1 13 7 WSW 1023,8 10
15.01.2018 06:00:00 13,0 8,0 11 6 WSW - 10
15.01.2018 05:00:00 13,0 8,0 9 5 SW - 10
15.01.2018 04:00:00 13,0 7,1 9 5 SW 1023,2 10
15.01.2018 03:00:00 13,0 7,0 11 6 SW - 10
15.01.2018 02:00:00 13,0 7,0 13 7 SW - 10
15.01.2018 01:00:00 13,2 6,9 13 7 SW 1024,0 10
15.01.2018 00:00:00 13,0 6,0 15 8 SW - 10
14.01.2018 23:00:00 13,0 6,0 13 7 SW - 10
14.01.2018 22:00:00 12,5 6,5 11 6 SSW 1024,0 10
14.01.2018 21:00:00 13,0 6,0 11 6 SW - 10
14.01.2018 20:00:00 13,0 6,0 15 8 SSW - 10
14.01.2018 19:00:00 13,0 7,0 13 7 SSW 1023,1 10
14.01.2018 18:00:00 13,0 7,0 13 7 SW - 10
14.01.2018 17:00:00 14,0 8,0 9 5 SSW - 10
14.01.2018 16:00:00 14,4 7,8 8 4 SW 1022,4 10
14.01.2018 15:00:00 15,0 8,0 11 6 WSW - 10
14.01.2018 14:00:00 15,0 9,0 13 7 SW - 10
14.01.2018 13:00:00 15,6 8,5 13 7 WSW 1022,5 10
14.01.2018 12:00:00 16,0 9,0 13 7 SW - 10
14.01.2018 11:00:00 15,0 8,0 8 4 NNE - 10
14.01.2018 10:00:00 13,4 9,8 5 3 SW 1023,1 10
14.01.2018 09:00:00 12,0 9,0 5 3 W - 10
14.01.2018 08:00:00 10,0 8,0 5 3 W - 10
14.01.2018 07:00:00 9,8 8,0 9 5 W 1021,6 10
14.01.2018 06:00:00 9,0 7,0 8 4 WNW - 10
14.01.2018 05:00:00 10,0 7,0 9 5 W - 10
14.01.2018 04:00:00 10,9 7,8 13 7 NW 1021,2 10
14.01.2018 03:00:00 11,0 7,0 11 6 NW - 10
14.01.2018 02:00:00 11,0 8,0 13 7 NW - 10
14.01.2018 01:00:00 11,3 8,1 15 8 NW 1020,8 10
14.01.2018 00:00:00 11,0 8,0 15 8 NW - 10
13.01.2018 23:00:00 11,0 7,0 13 7 NW - 10
13.01.2018 22:00:00 11,3 6,6 15 8 NNW 1020,6 10
13.01.2018 21:00:00 11,0 7,0 16 9 NNW - 10
13.01.2018 20:00:00 12,0 9,0 13 7 NW - 10
13.01.2018 19:00:00 12,1 8,2 16 9 NW 1018,7 10
13.01.2018 18:00:00 13,0 8,0 21 11 NNW - 10

tt = Température de l'air
td = dewpoint
ff = Vitesse du vent
dd = Direction du vent
ppp = reduced air pressure
vv = visibility

stations d'obs. à proximité